Regional Weather Roundup
Issued by NWS

Home | Current Version | Previous Version | Text Only | Print | Product List | Glossary Off
Versions: 1 2 3 4 5 6 7 8 9 10 11 12 13 14 15 16 17 18 19 20 21 22 23 24 25 26 27 28 29 30 31 32 33 34 35 36 37 38 39 40 41 42 43 44 45 46 47 48 49 50

000
ASUS43 KDTX 150010
RWRMI
MICHIGAN HOURLY REGIONAL WEATHER ROUNDUP
NATIONAL WEATHER SERVICE DETROIT/PONTIAC MI
700 PM EST SUN FEB 14 2016

NOTE: "FAIR" INDICATES FEW OR NO CLOUDS BELOW 12,000 FEET WITH NO
SIGNIFICANT WEATHER AND/OR OBSTRUCTION TO VISIBILITY.

MIZ047>049-052>055-059>063-066>070-074>076-081>083-150100-
SOUTHEAST LOWER MICHIGAN

CITY           SKY/WX    TMP DP  RH WIND       PRES   REMARKS
ADRIAN         CLOUDY    17   5  59 SE16      30.23F WCI   2
6HR MIN TEMP:  16; 6HR MAX TEMP:  18;

ALMA           CLOUDY    17   7  65 E9        30.22F WCI   5
ANN ARBOR      CLOUDY    15   5  64 SE8       30.24F WCI   4
BAD AXE        CLEAR     11   2  66 SE5       30.29F WCI   3
CARO           CLOUDY    12   3  67 SE8       30.27S WCI   1
DETROIT CITY   CLOUDY    16   4  59 SE10      30.30F WCI   4
6HR MIN TEMP:  15; 6HR MAX TEMP:  17;

DETROIT        CLOUDY    16   4  59 E9        30.28F WCI   4
6HR MIN TEMP:  15; 6HR MAX TEMP:  17; 6HR PCP: TRACE;

FLINT          CLOUDY    16   1  51 SE9       30.25F WCI   4
6HR MIN TEMP:  16; 6HR MAX TEMP:  19;

GROSSE ILE     CLOUDY    18   5  57 E8        30.27F WCI   7
HILLSDALE      LGT SNOW  15   7  71 SE10      30.16F WCI   2
6HR MIN TEMP:  15; 6HR MAX TEMP:  17;

HOWELL         CLOUDY    15   4  63 SE14      30.22F WCI   0

CITY           SKY/WX    TMP DP  RH WIND       PRES   REMARKS
JACKSON        CLOUDY    16   4  59 SE16      30.19F WCI   1
6HR MIN TEMP:  16; 6HR MAX TEMP:  17;

LAMBERTVILLE   CLOUDY    17   6  60 SE7       30.26F WCI   8
6HR MIN TEMP:  17; 6HR MAX TEMP:  19;

LANSING        CLOUDY    16   4  59 SE17      30.21F WCI   0
6HR MIN TEMP:  16; 6HR MAX TEMP:  18;

LAPEER         FAIR      13   4  70 SE8       30.27S WCI   1
6HR MIN TEMP:  13; 6HR MAX TEMP:  18;

MASON          CLOUDY    15   5  65 SE13G18   30.20F WCI   1
MONROE         CLOUDY    18   5  57 SE9       30.26F WCI   6
6HR MIN TEMP:  17; 6HR MAX TEMP:  18;

MT. CLEMENS    CLOUDY    16   6  65 SE13      30.29F WCI   2
6HR MIN TEMP:  15; 6HR MAX TEMP:  17;

PONTIAC        CLOUDY    14   2  58 SE10      30.24F WCI   1
6HR MIN TEMP:  13; 6HR MAX TEMP:  16;

PORT HOPE        N/A     10   1  67 S6        30.30S WCI   0
6HR MIN TEMP:  10; 6HR MAX TEMP:  16;

PORT HURON     CLOUDY    14   7  73 SE9       30.32S WCI   2
TRI CITIES     CLOUDY    16   4  59 S7        30.25F WCI   6
6HR MIN TEMP:  15; 6HR MAX TEMP:  19;

MIDLAND        FAIR      16   3  57 SE7       30.24F WCI   6
6HR MIN TEMP:  15; 6HR MAX TEMP:  17;

TROY           CLOUDY    17   4  56 SE7       30.30S WCI   7
SAGINAW HB     CLOUDY    14   7  73 SE9       30.26F WCI   2
$$
MIZ043>046-050>051-056>058-064>065-071>073-077>080-150100-
SOUTHWEST LOWER MICHIGAN

CITY           SKY/WX    TMP DP  RH WIND       PRES   REMARKS
BATTLE CREEK   CLOUDY    17   6  62 SE10      30.16F WCI   5
6HR MIN TEMP:  15; 6HR MAX TEMP:  18; 6HR PCP: TRACE;

BENTON HARBOR  LGT SNOW  17  11  77 E10       30.13F WCI   5
6HR MIN TEMP:  16; 6HR MAX TEMP:  18; 6HR PCP: TRACE;

BIG RAPIDS     CLOUDY    15   2  57 SE13      30.15F WCI   1
6HR MIN TEMP:  15; 6HR MAX TEMP:  18;

COLDWATER      LGT SNOW  17  11  80 SE13      30.17S WCI   3
6HR MIN TEMP:  16; 6HR MAX TEMP:  18;

FREMONT        CLOUDY    17   3  53 SE12G17   30.14F WCI   4
HOLLAND        CLOUDY    18   6  59 SE16      30.15F WCI   3
6HR MIN TEMP:  15; 6HR MAX TEMP:  18;

GRAND RAPIDS   CLOUDY    18   6  59 SE16      30.16F WCI   3
6HR MIN TEMP:  18; 6HR MAX TEMP:  20;

IONIA          CLOUDY    17   5  59 SE15G22   30.17F WCI   3
6HR MIN TEMP:  17; 6HR MAX TEMP:  19;

KALAMAZOO      LGT SNOW  17   9  70 SE9       30.16F WCI   6
6HR MIN TEMP:  16; 6HR MAX TEMP:  18; 6HR PCP: TRACE;

LUDINGTON      CLOUDY    18   3  53 SE8       30.14F WCI   7
6HR MIN TEMP:  17; 6HR MAX TEMP:  19;

MARSHALL       CLOUDY    17   6  62 SE15      30.17S WCI   2
6HR MIN TEMP:  17; 6HR MAX TEMP:  19;

MOUNT PLEASANT CLOUDY    17   4  57 SE9       30.20F WCI   5
6HR MIN TEMP:  17; 6HR MAX TEMP:  20;

MUSKEGON       CLOUDY    19   5  54 SE17      30.15F WCI   4
6HR MIN TEMP:  15; 6HR MAX TEMP:  19;

SOUTH HAVEN    LGT SNOW  16  12  82 SE12G18   30.14F WCI   3
$$
MIZ016>042-150100-
NORTHERN LOWER MICHIGAN

CITY           SKY/WX    TMP DP  RH WIND       PRES   REMARKS
ALPENA         CLEAR     12   1  61 S10       30.25F WCI  -1
6HR MIN TEMP:  12; 6HR MAX TEMP:  19; 6HR PCP: TRACE;

BEAVER ISLAND  CLEAR     17   4  58 SE5       30.17F WCI  10
6HR MIN TEMP:  17; 6HR MAX TEMP:  20;

BELLAIRE       CLEAR     15   1  54 SE6       30.18F WCI   7
6HR MIN TEMP:  15; 6HR MAX TEMP:  20;

CADILLAC       CLOUDY    11  -1  59 SE7       30.12S WCI   1
CHARLEVOIX     CLEAR     16   2  54 SE6       30.20F WCI   7
6HR MIN TEMP:  16; 6HR MAX TEMP:  20;

FRANKFORT      CLEAR     19   1  46 SE5       30.15S WCI  12
GAYLORD        CLEAR     13  -1  54 SE7       30.14F WCI   3
6HR MIN TEMP:  12; 6HR MAX TEMP:  17; 6HR PCP: TRACE;

GRAYLING       CLEAR     11  -1  57 SE9       30.17F WCI  -2
HARBOR SPRINGS CLEAR     15   0  52 CALM      30.19F
HOUGHTON LAKE  CLEAR     11  -2  56 SE7       30.18F WCI   0
6HR MIN TEMP:  11; 6HR MAX TEMP:  17;

MANISTEE       CLEAR     16  -2  45 E8        30.15S WCI   5
OSCODA         CLEAR     12   1  60 S5        30.28S WCI   4
6HR MIN TEMP:  12; 6HR MAX TEMP:  18;

PELLSTON       CLEAR     15  -2  46 S6        30.19F WCI   6
6HR MIN TEMP:  12; 6HR MAX TEMP:  19;

ROGERS CITY    CLEAR     12   3  67 SE5       30.24F WCI   4
TRAVERSE CITY  PTCLDY    16   1  51 CALM      30.16F
6HR MIN TEMP:  16; 6HR MAX TEMP:  21;

$$
MIZ007>008-015-150100-
EASTERN UPPER MICHIGAN

CITY           SKY/WX    TMP DP  RH WIND       PRES   REMARKS
KINROSS        CLOUDY    10   7  85 E10       30.19F WCI  -3
6HR MIN TEMP:  10; 6HR MAX TEMP:  18;

MACKINAC ISLAN CLEAR     17   2  53 SE6       30.19F WCI   8
6HR MIN TEMP:  16; 6HR MAX TEMP:  20;

NEWBERRY       CLEAR     11   6  81 SE6       30.14F WCI   1
6HR MIN TEMP:   9; 6HR MAX TEMP:  18;

S. S. MARIE    CLEAR      9   4  80 E8        30.22S WCI  -3
6HR MIN TEMP:   9; 6HR MAX TEMP:  15;

MUNISING         N/A     20  15  81 S8        30.11S WCI  10
6HR MIN TEMP:  18; 6HR MAX TEMP:  22;

$$
MIZ004>006-011>014-085-150100-
CENTRAL UPPER MICHIGAN

CITY           SKY/WX    TMP DP  RH WIND       PRES   REMARKS
MANISTIQUE     CLOUDY    20  12  69 S9G16     30.14S WCI  10
6HR MIN TEMP:  17; 6HR MAX TEMP:  22;

ESCANABA       CLOUDY    21  10  63 S8        30.12S WCI  12
6HR MIN TEMP:  16; 6HR MAX TEMP:  21;

MENOMINEE      CLOUDY    19  12  73 S8        30.10F WCI   9
6HR MIN TEMP:  12; 6HR MAX TEMP:  19;

SAWYER-GWINN   LGT SNOW  16  12  86 S18G24    30.04F WCI  -1
$$
MIZ001>003-009>011-084-150100-
WESTERN UPPER MICHIGAN

CITY           SKY/WX    TMP DP  RH WIND       PRES   REMARKS
IRON MOUNTAIN  CLOUDY    17   8  67 SE12      30.03F WCI   4
6HR MIN TEMP:  17; 6HR MAX TEMP:  20; 6HR PCP: TRACE;

HOUGHTON       CLEAR     19   5  54 S12       29.96F WCI   7
6HR MIN TEMP:  12; 6HR MAX TEMP:  20;

COPPER HARBOR    N/A     23  10  57 SW12G24   29.99F WCI  12
6HR MIN TEMP:  17; 6HR MAX TEMP:  23;

IRONWOOD       CLOUDY    19   3  49 SE12G17   29.89F WCI   7
6HR MIN TEMP:  16; 6HR MAX TEMP:  21;

$$

ABBREVIATIONS USED IN REMARKS
   TC - TEMPERATURE IN CELSIUS
  WCI - WIND CHILL INDEX
   HX - HEAT INDEX
  VSB - VISIBILITY




USA.gov is the U.S. government's official web portal to all federal, state and local government web resources and services.